Starlink 31522

operational
NORAD ID: 59204 Int'l Des: 2024-046 Owner: SPXS Country: US Constellation: starlink
LEOCIRCULAR

关于 Starlink 31522

正在加载描述...

实时位置

正在加载3D地球...

即将过境

高度历史

Altitude vs Time

uPlot chart will show altitude changes over time

两行轨道根数

1 59204U 24046D 25350.92090660 .00000746 00000-0 37336-4 0 9996
2 59204 53.1600 180.0540 0001407 91.7689 268.3473 15.30194005100379
Epoch: Dec 16, 2025 • Age: 6 hours

当前状态

高度 477.8 km
速度 7.63 km/s
星下点 38.31°N, 59.92°E
发射日期 Mar 11, 2024
运行时间 1.7 years
类型 internet

技术详情

分类 Payload
质量 730.00 kg
干质量 700.00 kg
总质量 730.00 kg
长度 0.30 m
直径 4.10 m
跨度 29.00 m
形状 Box + pan
制造商 SPXS
平台类型 Starlink V2M
阶段状态 In Orbit
所有者/国家 SPXS/US

大型星座

Loading constellations...